Flag for Austria Weather past 2 weeks in Klagenfurt, Carinthia, Austria

Now
66 °F

Passing clouds.


Feels Like: 66 °F
Forecast: 60 / 72 °F
Wind: 3 mph from Northwest

Location: Klagenfurt-Flughafen

Current Time: Sep 20, 2014 at 9:08:34 PM

Latest Report: Sep 20, 2014 at 8:20 PM


Visibility: N/A

Pressure: 29.98 "Hg

Humidity: 83%

Dew point: 61 °F

Location of KlagenfurtLocation

Historic Weather in Klagenfurt — Graph

°F

Klagenfurt temperature yesterday

Maximum temperature yesterday: 75 °F (at 2:20 PM)
Minimum temperature yesterday: 52 °F (at 5:20 AM)
Average temperature yesterday: 63 °F

Past Weeks' High & Low Weather Summary

 TemperatureHumidityPressure
High77 °F (Sep 8, 4:50 PM)100% (Sep 6, 12:50 AM)30.12 "Hg (Sep 6, 12:50 AM)
Low48 °F (Sep 18, 3:50 AM)47% (Sep 8, 4:50 PM)29.89 "Hg (Sep 12, 12:50 AM)
Average60 °F86%30.03 "Hg
* Reported Sep 5 7:20 PM — Sep 20 7:50 PM, Klagenfurt, Weather by CustomWeather, © 2014

Note: Actual official high and low records may vary slightly from our data, if they occured in-between our weather recording intervals... More about our weather records

Advertising

Klagenfurt weather history for previous 24 hours

 ConditionsComfort  
Time TempWeatherWind HumidityBarometerVisibility
7:50 PM
Sep 20
68 °FPassing clouds.2 mph83%29.95 "HgN/A
3:20 PM75 °FPartly sunny.1 mph57%29.98 "HgN/A
2:50 PM75 °FPartly sunny.3 mph57%29.98 "HgN/A
2:20 PM75 °FScattered clouds.1 mph57%30.01 "HgN/A
1:50 PM73 °FScattered clouds.3 mph61%30.01 "HgN/A
1:20 PM73 °FScattered clouds.2 mph57%30.01 "HgN/A
12:50 PM70 °FScattered clouds.3 mph64%30.04 "HgN/A
12:20 PM68 °FPartly sunny.2 mph69%30.04 "HgN/A
11:50 AM68 °FPartly sunny.5 mph69%30.04 "HgN/A
11:20 AM66 °FScattered clouds.1 mph73%30.07 "HgN/A
10:50 AM64 °FScattered clouds.2 mph78%30.07 "HgN/A
10:20 AM63 °FPartly sunny.2 mph83%30.07 "HgN/A
9:50 AM61 °FPartly sunny.2 mph83%30.07 "HgN/A
9:20 AM59 °FPartly sunny.2 mph88%30.07 "HgN/A
8:50 AM59 °FPartly sunny.1 mph88%30.07 "HgN/A
8:20 AM57 °FPartly sunny.5 mph88%30.07 "HgN/A
7:50 AM55 °FFog.6 mph94%30.07 "HgN/A
7:20 AM54 °FFog.6 mph100%30.07 "HgN/A
6:50 AM55 °FFog.2 mph94%30.07 "HgN/A
6:20 AM55 °FClear.1 mph94%30.04 "Hg10 mi
5:50 AM55 °FPassing clouds.2 mph94%30.07 "Hg5 mi
5:20 AM55 °FClear.3 mph94%30.07 "Hg10 mi
4:50 AM57 °FPassing clouds.3 mph88%30.07 "HgN/A
4:20 AM57 °FPassing clouds.5 mph88%30.07 "HgN/A
3:50 AM57 °FClear.2 mph94%30.07 "Hg10 mi
2:50 AM57 °FClear.2 mph94%30.07 "Hg10 mi
2:20 AM57 °FClear.2 mph94%30.07 "Hg10 mi
1:50 AM57 °FCool.3 mph94%30.07 "HgN/A
1:20 AM55 °FCool.1 mph94%30.07 "HgN/A
12:50 AM59 °FClear.2 mph88%30.07 "Hg10 mi
12:20 AM59 °FClear.2 mph88%30.07 "Hg10 mi
11:50 PM
Sep 19
59 °FClear.2 mph88%30.07 "Hg10 mi
11:20 PM59 °FPassing clouds.1 mph88%30.07 "HgN/A
10:50 PM61 °FPassing clouds.1 mph88%30.07 "HgN/A
10:20 PM59 °FPartly cloudy.3 mph88%30.07 "HgN/A
9:50 PM61 °FPartly cloudy.3 mph83%30.07 "HgN/A
9:20 PM63 °FPartly cloudy.2 mph77%30.07 "HgN/A
Weather by CustomWeather, © 2014

See weather overviewHow to use our weather pages